Overview Statistics Trail Chart Weather Telemetry Raw packets
 

This is the latest recevied weather packets stored in our database for station/object ALANSN-2. If no packets are shown the sender has not sent any weather packets the latest 10 day(s).

<< 1 2 3 4 5 >>
Time Temp. Humidity Pressure Rain* Wind** Luminosity Snow
1788570419 19.44° C 99% 1027.3 hPa 0 mm - 0 W/m² -
1788570119 19.44° C 99% 1027.2 hPa 0 mm - 0 W/m² -
1788569819 19.44° C 99% 1027.3 hPa 0 mm - 0 W/m² -
1788569520 19.44° C 99% 1027.1 hPa 0 mm - 0 W/m² -
1788569219 19.44° C 99% 1027 hPa 0 mm - 0 W/m² -
1788568921 20° C 99% 1026.9 hPa 0 mm - 0 W/m² -
1788568619 20° C 99% 1027 hPa 0 mm - 0 W/m² -
1788568320 20° C 98% 1026.8 hPa 0 mm - 0 W/m² -
1788568019 20° C 97% 1027.1 hPa 0 mm - 0 W/m² -
1788567719 20° C 97% 1027 hPa 0 mm - 0 W/m² -
1788567418 20° C 96% 1026.9 hPa 0 mm - 0 W/m² -
1788567120 20° C 95% 1026.8 hPa 0 mm - 1 W/m² -
1788566820 20° C 95% 1026.6 hPa 0 mm - 0 W/m² -
1788566519 20° C 96% 1026.7 hPa 0 mm - 2 W/m² -
1788566220 20.56° C 96% 1026.8 hPa 0 mm - 4 W/m² -
1788565919 20.56° C 96% 1027 hPa 0 mm - 5 W/m² -
1788565619 20.56° C 95% 1026.8 hPa 0 mm - 8 W/m² -
1788565320 20.56° C 94% 1026.5 hPa 0 mm - 12 W/m² -
1788565019 20.56° C 94% 1026.8 hPa 0 mm - 14 W/m² -
1788564720 20.56° C 94% 1026.5 hPa 0 mm - 17 W/m² -
1788564419 20.56° C 94% 1026.5 hPa 0 mm - 21 W/m² -
1788564119 20.56° C 94% 1026.5 hPa 0 mm - 21 W/m² -
1788563819 20.56° C 94% 1026.7 hPa 0 mm - 18 W/m² -
1788563520 20.56° C 94% 1026.5 hPa 0 mm - 24 W/m² -
1788563219 20.56° C 94% 1026.5 hPa 0 mm - 24 W/m² -

* Rain latest hour (hover to see other rain measurements)
** Current wind speed in m/s (hover to see current wind gust speed)